Location: Boiro
(42.6475°N, 8.8834°W)
Time: 08:25:41
(UTC+01:00)

SR - Pass Details

Date: 09 December 2021
Orbit: 583 x 872 km, 66.7° (Epoch: 16 January)

Event Time Altitude Azimuth Distance (km) Brightness Sun altitude
Rises 08:27:23 0° 330° (NNW) 2,832 - -5.1°
Exits shadow 08:27:44 - 330° (NNW) 2,688 ? -5.1°
Reaches altitude 10° 08:29:35 10° 331° (NNW) 1,946 ? -4.7°
Maximum altitude 08:33:57 80° 58° (ENE) 637 ? -4.0°
Drops below altitude 10° 08:38:34 10° 147° (SSE) 2,061 ? -3.3°
Sets 08:40:57 0° 148° (SSE) 3,015 ? -2.9°
